Flag for Ukraine Weather past 2 weeks in Odesa, Ukraine

Now
43 °F

Passing clouds.


Feels Like: 34 °F
Forecast: 39 / 47 °F
Wind: 22 mph from South

Location: Odesa Airport

Current Time: Jan 30, 2015 at 9:15:46 PM

Latest Report: Jan 30, 2015 at 8:30 PM


Visibility: N/A

Pressure: 29.42 "Hg

Humidity: 93%

Dew point: 41 °F

Location of OdesaLocation

Historic Weather in Odesa — Graph

°F

Odesa temperature yesterday

Maximum temperature yesterday: 39 °F (at 11:00 PM)
Minimum temperature yesterday: 32 °F (at 3:00 AM)
Average temperature yesterday: 34 °F

Past Weeks' High & Low Weather Summary

 TemperatureHumidityPressure
High45 °F (Jan 30, 12:00 PM)100% (Jan 17, 3:00 AM)30.33 "Hg (Jan 17, 3:00 AM)
Low28 °F (Jan 19, 2:30 AM)75% (Jan 16, 1:00 PM)29.42 "Hg (Jan 30, 7:00 PM)
Average35 °F95%30.05 "Hg
* Reported Jan 15 8:00 PM — Jan 30 8:00 PM, Odesa, Weather by CustomWeather, © 2014

Note: Actual official high and low records may vary slightly from our data, if they occured in-between our weather recording intervals... More about our weather records

Advertising

Odesa weather history for previous 24 hours

 ConditionsComfort  
Time TempWeatherWind HumidityBarometerVisibility
8:00 PM
Jan 30
45 °FPassing clouds.22 mph87%29.42 "HgN/A
7:30 PM43 °FClear.22 mph93%29.42 "Hg10 mi
7:00 PM43 °FClear.20 mph93%29.42 "Hg10 mi
6:30 PM43 °FClear.17 mph87%29.45 "Hg10 mi
6:00 PM43 °FClear.20 mph93%29.45 "Hg10 mi
5:30 PM43 °FClear.20 mph93%29.45 "Hg10 mi
5:00 PM45 °FClear.22 mph87%29.45 "Hg10 mi
4:30 PM43 °FPartly sunny.20 mph93%29.45 "HgN/A
4:00 PM45 °FMore clouds than sun.20 mph87%29.45 "HgN/A
3:30 PM45 °FMostly cloudy.22 mph93%29.47 "HgN/A
3:00 PM45 °FMore clouds than sun.17 mph93%29.47 "HgN/A
2:30 PM45 °FMore clouds than sun.20 mph93%29.47 "HgN/A
2:00 PM45 °FMore clouds than sun.20 mph93%29.47 "HgN/A
1:30 PM43 °FMostly cloudy.17 mph100%29.50 "HgN/A
1:00 PM43 °FFog.17 mph100%29.50 "Hg3 mi
12:30 PM43 °FFog.17 mph100%29.53 "Hg2 mi
12:00 PM45 °FFog.17 mph93%29.53 "Hg3 mi
11:30 AM43 °FLow clouds.17 mph100%29.56 "HgN/A
11:00 AM43 °FLow clouds.20 mph100%29.56 "HgN/A
10:30 AM43 °FFog.17 mph100%29.56 "Hg3 mi
10:00 AM43 °FFog.17 mph93%29.56 "Hg2 mi
9:30 AM43 °FLight rain. Fog.17 mph93%29.59 "Hg2 mi
9:00 AM43 °FLight rain. Fog.17 mph93%29.59 "Hg2 mi
8:30 AM43 °FLight rain. Fog.20 mph93%29.59 "Hg1 mi
8:02 AM41 °FLight rain. Fog.20 mph100%29.59 "Hg2 mi
7:30 AM43 °FLight rain. Overcast.17 mph93%29.59 "HgN/A
7:00 AM41 °FOvercast.17 mph100%29.59 "HgN/A
6:30 AM41 °FOvercast.15 mph93%29.59 "HgN/A
6:00 AM41 °FOvercast.15 mph93%29.59 "HgN/A
5:30 AM41 °FLow clouds.15 mph93%29.59 "HgN/A
5:00 AM41 °FOvercast.10 mph93%29.62 "HgN/A
4:30 AM41 °FOvercast.13 mph93%29.62 "HgN/A
4:00 AM41 °FOvercast.13 mph93%29.62 "HgN/A
3:30 AM41 °FOvercast.10 mph87%29.62 "HgN/A
3:00 AM41 °FOvercast.10 mph87%29.65 "HgN/A
2:30 AM41 °FOvercast.10 mph87%29.65 "HgN/A
2:00 AM39 °FOvercast.10 mph93%29.68 "HgN/A
1:30 AM39 °FOvercast.8 mph93%29.68 "HgN/A
1:00 AM39 °FOvercast.8 mph93%29.68 "HgN/A
12:30 AM39 °FOvercast.6 mph93%29.68 "HgN/A
12:00 AM39 °FOvercast.8 mph87%29.71 "HgN/A
11:30 PM
Jan 29
39 °FOvercast.10 mph87%29.71 "HgN/A
11:00 PM39 °FOvercast.10 mph87%29.71 "HgN/A
10:30 PM37 °FOvercast.8 mph93%29.71 "HgN/A
10:00 PM37 °FOvercast.8 mph93%29.74 "HgN/A
9:30 PM37 °FOvercast.8 mph93%29.74 "HgN/A
9:00 PM37 °FOvercast.6 mph93%29.74 "HgN/A
Weather by CustomWeather, © 2014

See weather overviewHow to use our weather pages